GEFSMA_prec_meanprec_006.txt.gz
QPF
0.00 0.00 0.01 0.02 0.03 0.01 0.01 0.01 0.00 0.01 0.01 0.01 0.01 0.01 0.01 0.01 0.03 0.10 0.10 0.19 0.15 0.11 0.20 0.25 0.34 0.39 0.25 0.14 0.12 0.11 0.06 0.02 0.01 0.00 0.00 0.00 0.00 0.00 0.00 0.00 0.00 0.00 0.00
0.00 0.00 0.00 0.01 0.03 0.01 0.01 0.00 0.00 0.00 0.00 0.00 0.00 0.00 0.00 0.00 0.01 0.03 0.02 0.06 0.21 0.28 0.27 0.29 0.34 0.34 0.24 0.11 0.08 0.08 0.06 0.03 0.02 0.01 0.00 0.00 0.00 0.00 0.00 0.00 0.00 0.00 0.00
0.00 0.01 0.01 0.00 0.04 0.03 0.01 0.00 0.00 0.00 0.00 0.00 0.00 0.01 0.01 0.01 0.02 0.05 0.09 0.13 0.21 0.28 0.30 0.27 0.30 0.33 0.28 0.16 0.07 0.11 0.10 0.08 0.06 0.03 0.01 0.00 0.00 0.00 0.00 0.00 0.00 0.00 0.00
0.00 0.02 0.01 0.00 0.03 0.05 0.01 0.00 0.00 0.00 0.00 0.00 0.01 0.00 0.00 0.01 0.02 0.05 0.10 0.18 0.19 0.12 0.19 0.28 0.25 0.25 0.30 0.32 0.24 0.24 0.24 0.18 0.14 0.07 0.03 0.00 0.00 0.00 0.00 0.00 0.00 0.00 0.00
0.00 0.00 0.01 0.01 0.04 0.04 0.01 0.00 0.00 0.00 0.00 0.00 0.00 0.00 0.00 0.00 0.00 0.01 0.06 0.11 0.11 0.11 0.12 0.21 0.36 0.32 0.34 0.42 0.45 0.42 0.41 0.38 0.34 0.18 0.05 0.01 0.00 0.00 0.00 0.00 0.00 0.00 0.00
0.02 0.01 0.01 0.03 0.05 0.03 0.03 0.02 0.00 0.00 0.00 0.00 0.00 0.01 0.00 0.00 0.00 0.01 0.02 0.05 0.09 0.10 0.09 0.13 0.16 0.19 0.24 0.32 0.42 0.44 0.41 0.44 0.47 0.25 0.11 0.03 0.00 0.00 0.00 0.00 0.00 0.00 0.00
0.04 0.03 0.02 0.05 0.05 0.04 0.10 0.06 0.01 0.00 0.00 0.00 0.01 0.01 0.00 0.00 0.00 0.00 0.00 0.00 0.03 0.10 0.13 0.22 0.27 0.31 0.28 0.28 0.24 0.28 0.29 0.32 0.36 0.25 0.15 0.04 0.01 0.00 0.00 0.00 0.00 0.00 0.00
0.03 0.03 0.04 0.06 0.04 0.05 0.11 0.06 0.01 0.01 0.04 0.04 0.01 0.00 0.00 0.00 0.01 0.00 0.00 0.00 0.02 0.05 0.10 0.19 0.31 0.39 0.31 0.19 0.18 0.22 0.26 0.28 0.18 0.11 0.08 0.04 0.01 0.00 0.00 0.00 0.00 0.00 0.00
0.05 0.04 0.04 0.08 0.04 0.04 0.07 0.08 0.04 0.05 0.10 0.07 0.02 0.00 0.00 0.01 0.01 0.00 0.00 0.00 0.01 0.02 0.03 0.06 0.10 0.09 0.07 0.10 0.19 0.21 0.20 0.15 0.07 0.04 0.02 0.01 0.00 0.00 0.00 0.00 0.00 0.00 0.00
0.10 0.08 0.04 0.03 0.01 0.02 0.02 0.08 0.12 0.12 0.09 0.03 0.02 0.03 0.03 0.02 0.01 0.00 0.00 0.00 0.01 0.03 0.06 0.05 0.05 0.02 0.01 0.07 0.16 0.16 0.10 0.04 0.02 0.01 0.00 0.00 0.00 0.00 0.00 0.00 0.00 0.00 0.00
0.10 0.08 0.05 0.02 0.01 0.04 0.06 0.11 0.14 0.12 0.06 0.01 0.01 0.02 0.01 0.00 0.01 0.01 0.01 0.01 0.00 0.01 0.04 0.03 0.02 0.02 0.02 0.07 0.11 0.10 0.04 0.02 0.02 0.01 0.00 0.00 0.00 0.00 0.00 0.00 0.00 0.00 0.00
0.03 0.03 0.04 0.05 0.04 0.06 0.07 0.10 0.13 0.10 0.04 0.03 0.02 0.01 0.00 0.00 0.01 0.01 0.01 0.01 0.01 0.00 0.00 0.00 0.01 0.03 0.07 0.08 0.04 0.04 0.02 0.01 0.01 0.01 0.00 0.00 0.00 0.00 0.00 0.00 0.00 0.00 0.00
0.03 0.04 0.07 0.06 0.04 0.02 0.04 0.06 0.06 0.07 0.06 0.08 0.06 0.02 0.01 0.01 0.03 0.04 0.01 0.01 0.00 0.00 0.00 0.00 0.00 0.00 0.02 0.02 0.01 0.01 0.01 0.01 0.00 0.00 0.00 0.00 0.00 0.00 0.00 0.00 0.00 0.00 0.00
0.04 0.03 0.02 0.01 0.01 0.00 0.03 0.09 0.15 0.12 0.16 0.17 0.16 0.07 0.05 0.06 0.04 0.05 0.05 0.04 0.04 0.02 0.01 0.01 0.00 0.00 0.00 0.01 0.01 0.01 0.00 0.00 0.00 0.00 0.00 0.00 0.00 0.00 0.00 0.00 0.00 0.00 0.00
0.01 0.00 0.00 0.00 0.00 0.01 0.02 0.06 0.17 0.14 0.14 0.20 0.30 0.20 0.09 0.09 0.07 0.05 0.07 0.07 0.05 0.07 0.05 0.02 0.01 0.00 0.00 0.00 0.00 0.00 0.00 0.00 0.00 0.00 0.00 0.00 0.00 0.00 0.00 0.00 0.00 0.00 0.00
0.00 0.00 0.00 0.00 0.00 0.01 0.03 0.06 0.14 0.22 0.18 0.19 0.31 0.26 0.16 0.11 0.10 0.06 0.06 0.06 0.11 0.15 0.10 0.05 0.03 0.00 0.00 0.00 0.00 0.00 0.00 0.00 0.00 0.00 0.00 0.00 0.00 0.00 0.00 0.00 0.00 0.00 0.00
0.00 0.00 0.00 0.00 0.00 0.01 0.01 0.02 0.06 0.15 0.18 0.15 0.21 0.18 0.15 0.10 0.08 0.06 0.05 0.04 0.15 0.22 0.22 0.15 0.08 0.04 0.01 0.00 0.00 0.00 0.00 0.00 0.00 0.00 0.00 0.00 0.00 0.00 0.00 0.00 0.00 0.00 0.00
0.00 0.00 0.00 0.00 0.00 0.00 0.01 0.01 0.01 0.04 0.09 0.14 0.19 0.23 0.23 0.23 0.18 0.08 0.05 0.04 0.10 0.17 0.26 0.33 0.27 0.16 0.06 0.01 0.01 0.00 0.00 0.00 0.00 0.00 0.00 0.00 0.00 0.00 0.00 0.00 0.00 0.00 0.00
0.00 0.00 0.00 0.00 0.00 0.00 0.00 0.00 0.00 0.01 0.05 0.08 0.17 0.24 0.22 0.17 0.12 0.06 0.06 0.05 0.04 0.06 0.11 0.23 0.29 0.21 0.18 0.09 0.03 0.02 0.01 0.00 0.00 0.00 0.00 0.00 0.00 0.00 0.00 0.00 0.00 0.00 0.00
0.00 0.00 0.00 0.00 0.00 0.00 0.00 0.00 0.00 0.00 0.01 0.02 0.06 0.10 0.13 0.11 0.09 0.05 0.03 0.04 0.04 0.04 0.04 0.07 0.13 0.21 0.30 0.24 0.16 0.13 0.10 0.05 0.02 0.01 0.01 0.01 0.00 0.00 0.00 0.00 0.00 0.00 0.00
0.00 0.00 0.00 0.00 0.00 0.00 0.00 0.00 0.00 0.00 0.00 0.01 0.01 0.01 0.02 0.02 0.02 0.02 0.03 0.04 0.06 0.06 0.05 0.05 0.09 0.14 0.21 0.21 0.19 0.21 0.12 0.07 0.06 0.06 0.04 0.01 0.01 0.00 0.00 0.00 0.00 0.00 0.00
0.00 0.00 0.00 0.00 0.00 0.00 0.00 0.00 0.00 0.00 0.00 0.00 0.00 0.00 0.00 0.00 0.00 0.01 0.01 0.02 0.02 0.03 0.04 0.05 0.10 0.18 0.17 0.11 0.19 0.21 0.19 0.19 0.16 0.14 0.10 0.06 0.04 0.02 0.00 0.00 0.00 0.00 0.00
0.00 0.00 0.00 0.00 0.00 0.00 0.00 0.00 0.00 0.00 0.00 0.00 0.00 0.00 0.00 0.00 0.00 0.00 0.02 0.05 0.04 0.02 0.01 0.01 0.06 0.13 0.12 0.06 0.14 0.27 0.24 0.20 0.20 0.13 0.11 0.09 0.06 0.03 0.01 0.00 0.00 0.00 0.00
0.00 0.00 0.00 0.00 0.00 0.00 0.00 0.00 0.00 0.00 0.00 0.00 0.00 0.00 0.00 0.00 0.00 0.00 0.00 0.01 0.02 0.01 0.01 0.01 0.01 0.01 0.01 0.01 0.04 0.12 0.18 0.14 0.13 0.11 0.08 0.06 0.05 0.03 0.02 0.02 0.01 0.00 0.00
0.01 0.00 0.00 0.00 0.00 0.00 0.00 0.00 0.00 0.00 0.00 0.00 0.00 0.00 0.00 0.00 0.00 0.00 0.00 0.00 0.00 0.00 0.00 0.00 0.01 0.01 0.01 0.00 0.00 0.01 0.03 0.07 0.13 0.14 0.05 0.04 0.02 0.02 0.02 0.03 0.03 0.03 0.02
0.00 0.00 0.00 0.00 0.00 0.00 0.00 0.00 0.00 0.00 0.00 0.00 0.00 0.00 0.00 0.00 0.00 0.00 0.00 0.00 0.00 0.00 0.00 0.00 0.00 0.00 0.00 0.00 0.00 0.00 0.00 0.01 0.03 0.07 0.02 0.01 0.01 0.01 0.01 0.02 0.04 0.04 0.04

GEFSMA_prec_meanprec_012.txt.gz
QPF
0.00 0.00 0.00 0.00 0.00 0.00 0.00 0.00 0.00 0.00 0.00 0.00 0.00 0.00 0.00 0.00 0.00 0.00 0.00 0.01 0.06 0.16 0.26 0.37 0.40 0.39 0.35 0.27 0.19 0.20 0.21 0.12 0.04 0.01 0.01 0.00 0.00 0.00 0.00 0.00 0.00 0.00 0.00
0.00 0.00 0.00 0.00 0.00 0.00 0.00 0.00 0.00 0.00 0.00 0.00 0.00 0.00 0.00 0.00 0.00 0.00 0.00 0.00 0.04 0.13 0.22 0.30 0.40 0.42 0.38 0.32 0.24 0.21 0.22 0.17 0.08 0.03 0.01 0.01 0.00 0.00 0.00 0.00 0.00 0.00 0.00
0.00 0.00 0.00 0.00 0.00 0.01 0.01 0.00 0.00 0.00 0.00 0.00 0.00 0.00 0.00 0.00 0.00 0.00 0.00 0.00 0.00 0.02 0.06 0.13 0.26 0.37 0.37 0.35 0.29 0.23 0.22 0.23 0.19 0.09 0.04 0.03 0.02 0.00 0.00 0.00 0.00 0.00 0.00
0.00 0.00 0.00 0.00 0.00 0.00 0.00 0.00 0.00 0.00 0.00 0.00 0.00 0.00 0.00 0.00 0.00 0.00 0.00 0.00 0.00 0.00 0.01 0.03 0.13 0.22 0.27 0.30 0.34 0.32 0.29 0.29 0.29 0.19 0.10 0.06 0.03 0.01 0.00 0.00 0.00 0.00 0.00
0.01 0.01 0.01 0.00 0.00 0.00 0.00 0.00 0.00 0.00 0.00 0.00 0.00 0.00 0.00 0.00 0.00 0.00 0.00 0.00 0.00 0.00 0.00 0.00 0.04 0.08 0.18 0.28 0.35 0.39 0.39 0.37 0.34 0.29 0.18 0.12 0.07 0.02 0.00 0.00 0.00 0.00 0.00
0.02 0.02 0.02 0.02 0.01 0.01 0.01 0.00 0.00 0.00 0.00 0.00 0.00 0.00 0.00 0.00 0.00 0.00 0.00 0.00 0.00 0.00 0.00 0.00 0.00 0.01 0.06 0.16 0.25 0.35 0.45 0.50 0.47 0.43 0.36 0.30 0.16 0.04 0.00 0.00 0.00 0.00 0.00
0.02 0.03 0.04 0.03 0.01 0.01 0.02 0.01 0.00 0.00 0.00 0.00 0.00 0.00 0.00 0.00 0.00 0.00 0.00 0.00 0.00 0.00 0.00 0.00 0.00 0.00 0.02 0.08 0.14 0.23 0.41 0.57 0.64 0.64 0.61 0.50 0.25 0.07 0.01 0.00 0.00 0.00 0.00
0.03 0.04 0.04 0.02 0.01 0.01 0.02 0.02 0.01 0.00 0.00 0.01 0.01 0.00 0.00 0.00 0.00 0.00 0.00 0.00 0.00 0.00 0.00 0.00 0.00 0.00 0.02 0.08 0.13 0.19 0.37 0.54 0.68 0.82 0.86 0.65 0.30 0.08 0.02 0.00 0.00 0.00 0.00
0.07 0.06 0.05 0.04 0.03 0.03 0.02 0.02 0.01 0.00 0.00 0.01 0.02 0.01 0.01 0.00 0.00 0.00 0.00 0.00 0.00 0.00 0.00 0.00 0.00 0.01 0.02 0.07 0.14 0.18 0.31 0.42 0.49 0.61 0.65 0.50 0.25 0.09 0.03 0.01 0.00 0.00 0.00
0.09 0.09 0.09 0.09 0.07 0.07 0.05 0.03 0.02 0.01 0.00 0.01 0.02 0.03 0.04 0.02 0.00 0.00 0.00 0.00 0.00 0.00 0.00 0.00 0.00 0.01 0.01 0.04 0.09 0.15 0.19 0.17 0.15 0.21 0.23 0.17 0.12 0.06 0.02 0.01 0.00 0.00 0.00
0.11 0.13 0.14 0.15 0.17 0.15 0.08 0.05 0.04 0.02 0.00 0.00 0.00 0.01 0.02 0.01 0.00 0.00 0.00 0.00 0.00 0.00 0.00 0.00 0.00 0.00 0.01 0.02 0.04 0.07 0.08 0.05 0.03 0.06 0.04 0.02 0.02 0.01 0.00 0.00 0.00 0.00 0.00
0.13 0.15 0.16 0.18 0.18 0.13 0.06 0.03 0.02 0.01 0.00 0.00 0.00 0.01 0.01 0.00 0.00 0.00 0.00 0.00 0.00 0.00 0.00 0.00 0.00 0.00 0.00 0.01 0.02 0.03 0.03 0.02 0.01 0.02 0.02 0.01 0.00 0.00 0.00 0.00 0.00 0.00 0.00
0.13 0.11 0.10 0.09 0.08 0.05 0.03 0.02 0.01 0.01 0.00 0.00 0.00 0.01 0.01 0.00 0.00 0.01 0.00 0.00 0.00 0.00 0.00 0.00 0.00 0.00 0.00 0.01 0.01 0.01 0.01 0.01 0.02 0.01 0.01 0.00 0.00 0.00 0.00 0.00 0.00 0.00 0.00
0.09 0.06 0.04 0.03 0.02 0.02 0.02 0.01 0.01 0.01 0.00 0.00 0.00 0.00 0.01 0.01 0.02 0.03 0.02 0.01 0.00 0.00 0.00 0.00 0.00 0.00 0.00 0.00 0.00 0.00 0.00 0.01 0.01 0.01 0.01 0.00 0.00 0.00 0.00 0.00 0.00 0.00 0.00
0.03 0.03 0.02 0.01 0.01 0.01 0.00 0.00 0.00 0.00 0.00 0.00 0.00 0.00 0.01 0.02 0.03 0.04 0.04 0.02 0.01 0.00 0.00 0.00 0.00 0.00 0.00 0.00 0.00 0.00 0.00 0.00 0.00 0.00 0.00 0.00 0.00 0.00 0.00 0.00 0.00 0.00 0.00
0.01 0.01 0.01 0.00 0.00 0.00 0.00 0.00 0.00 0.00 0.00 0.01 0.01 0.01 0.02 0.05 0.05 0.05 0.04 0.02 0.02 0.02 0.01 0.01 0.01 0.00 0.00 0.00 0.00 0.00 0.00 0.00 0.00 0.00 0.00 0.00 0.00 0.00 0.00 0.00 0.00 0.00 0.00
0.00 0.00 0.00 0.00 0.00 0.00 0.00 0.00 0.00 0.01 0.01 0.01 0.01 0.02 0.03 0.06 0.06 0.06 0.05 0.04 0.03 0.02 0.02 0.02 0.02 0.01 0.00 0.00 0.00 0.00 0.00 0.00 0.00 0.00 0.00 0.00 0.00 0.00 0.00 0.00 0.00 0.00 0.00
0.00 0.00 0.00 0.00 0.00 0.00 0.00 0.00 0.00 0.01 0.01 0.02 0.04 0.06 0.09 0.11 0.08 0.05 0.06 0.06 0.04 0.03 0.02 0.03 0.02 0.02 0.01 0.00 0.00 0.00 0.00 0.00 0.00 0.00 0.00 0.00 0.00 0.00 0.00 0.00 0.00 0.00 0.00
0.00 0.00 0.00 0.00 0.00 0.00 0.00 0.00 0.00 0.00 0.01 0.02 0.04 0.07 0.11 0.14 0.14 0.12 0.10 0.08 0.07 0.04 0.03 0.04 0.03 0.03 0.02 0.01 0.00 0.00 0.00 0.00 0.00 0.00 0.00 0.00 0.00 0.00 0.00 0.00 0.00 0.00 0.00
0.00 0.00 0.00 0.00 0.00 0.00 0.00 0.00 0.00 0.01 0.01 0.03 0.05 0.07 0.10 0.12 0.14 0.16 0.13 0.11 0.09 0.06 0.05 0.04 0.04 0.03 0.02 0.01 0.01 0.00 0.00 0.00 0.00 0.00 0.00 0.00 0.01 0.01 0.01 0.01 0.00 0.00 0.00
0.00 0.00 0.00 0.00 0.00 0.00 0.00 0.00 0.01 0.01 0.02 0.03 0.03 0.03 0.04 0.06 0.08 0.09 0.09 0.08 0.06 0.04 0.04 0.04 0.04 0.04 0.03 0.02 0.01 0.01 0.00 0.00 0.01 0.01 0.02 0.01 0.02 0.03 0.03 0.02 0.01 0.01 0.00
0.00 0.00 0.00 0.00 0.00 0.00 0.00 0.00 0.00 0.00 0.00 0.01 0.00 0.00 0.01 0.01 0.01 0.02 0.02 0.02 0.03 0.03 0.04 0.05 0.04 0.03 0.03 0.03 0.02 0.02 0.01 0.02 0.02 0.03 0.03 0.03 0.06 0.06 0.06 0.04 0.03 0.01 0.01
0.00 0.00 0.00 0.00 0.00 0.00 0.00 0.00 0.00 0.00 0.00 0.00 0.00 0.00 0.00 0.00 0.00 0.00 0.00 0.00 0.01 0.01 0.02 0.03 0.03 0.03 0.03 0.03 0.03 0.02 0.02 0.02 0.02 0.02 0.02 0.04 0.08 0.10 0.13 0.09 0.05 0.02 0.01
0.00 0.00 0.00 0.00 0.00 0.00 0.00 0.00 0.00 0.00 0.00 0.00 0.00 0.00 0.00 0.00 0.00 0.00 0.00 0.00 0.00 0.00 0.01 0.01 0.02 0.03 0.02 0.02 0.02 0.03 0.02 0.02 0.02 0.02 0.03 0.05 0.08 0.11 0.15 0.13 0.10 0.06 0.03
0.03 0.01 0.00 0.00 0.00 0.00 0.00 0.00 0.00 0.00 0.00 0.00 0.00 0.00 0.00 0.00 0.00 0.00 0.00 0.00 0.00 0.00 0.00 0.00 0.01 0.02 0.02 0.02 0.02 0.02 0.02 0.02 0.03 0.06 0.05 0.06 0.06 0.07 0.09 0.09 0.08 0.06 0.05
0.05 0.02 0.01 0.00 0.00 0.00 0.00 0.00 0.00 0.00 0.00 0.00 0.00 0.00 0.00 0.00 0.00 0.00 0.00 0.00 0.00 0.00 0.00 0.00 0.00 0.00 0.00 0.01 0.01 0.01 0.01 0.01 0.01 0.02 0.03 0.04 0.04 0.03 0.03 0.03 0.02 0.03 0.03

GEFSMA_prec_meanprec_018.txt.gz
QPF
0.01 0.04 0.05 0.06 0.03 0.02 0.03 0.06 0.03 0.03 0.02 0.02 0.02 0.02 0.02 0.03 0.03 0.07 0.10 0.03 0.03 0.07 0.12 0.20 0.25 0.25 0.27 0.29 0.27 0.26 0.27 0.28 0.23 0.13 0.07 0.03 0.01 0.00 0.00 0.00 0.00 0.00 0.00
0.06 0.09 0.08 0.09 0.06 0.04 0.05 0.07 0.06 0.05 0.03 0.02 0.01 0.00 0.00 0.01 0.01 0.02 0.04 0.03 0.01 0.01 0.02 0.05 0.11 0.17 0.24 0.27 0.26 0.23 0.26 0.30 0.30 0.19 0.10 0.04 0.01 0.00 0.00 0.00 0.00 0.00 0.00
0.09 0.11 0.08 0.08 0.07 0.06 0.10 0.12 0.09 0.07 0.03 0.01 0.00 0.00 0.00 0.01 0.01 0.01 0.00 0.01 0.00 0.00 0.00 0.00 0.02 0.06 0.11 0.15 0.18 0.22 0.25 0.29 0.33 0.26 0.15 0.08 0.03 0.01 0.00 0.00 0.00 0.00 0.00
0.07 0.12 0.09 0.06 0.07 0.08 0.11 0.13 0.10 0.06 0.03 0.01 0.00 0.01 0.01 0.01 0.01 0.00 0.00 0.00 0.00 0.00 0.00 0.00 0.00 0.01 0.04 0.06 0.09 0.17 0.26 0.29 0.32 0.31 0.21 0.14 0.08 0.04 0.01 0.00 0.00 0.00 0.00
0.06 0.14 0.13 0.11 0.06 0.09 0.09 0.07 0.04 0.04 0.03 0.03 0.01 0.01 0.00 0.00 0.01 0.00 0.00 0.00 0.00 0.00 0.00 0.00 0.00 0.00 0.01 0.03 0.05 0.11 0.23 0.30 0.30 0.33 0.30 0.23 0.17 0.09 0.03 0.01 0.00 0.00 0.00
0.07 0.15 0.15 0.14 0.08 0.11 0.11 0.08 0.07 0.08 0.05 0.04 0.01 0.00 0.00 0.00 0.00 0.00 0.00 0.00 0.00 0.00 0.00 0.00 0.00 0.00 0.00 0.00 0.01 0.04 0.15 0.29 0.33 0.35 0.39 0.37 0.31 0.21 0.08 0.02 0.00 0.00 0.00
0.10 0.18 0.16 0.19 0.15 0.13 0.13 0.08 0.09 0.07 0.06 0.03 0.01 0.01 0.00 0.00 0.00 0.00 0.00 0.00 0.00 0.00 0.00 0.00 0.01 0.01 0.01 0.01 0.01 0.01 0.08 0.27 0.35 0.38 0.49 0.60 0.60 0.44 0.19 0.05 0.01 0.00 0.00
0.13 0.15 0.22 0.21 0.18 0.16 0.16 0.15 0.13 0.08 0.06 0.04 0.03 0.02 0.01 0.01 0.01 0.00 0.00 0.00 0.00 0.00 0.00 0.00 0.00 0.01 0.01 0.03 0.03 0.01 0.05 0.20 0.35 0.44 0.66 0.98 1.07 0.69 0.31 0.11 0.02 0.01 0.00
0.14 0.16 0.18 0.20 0.19 0.18 0.20 0.23 0.16 0.12 0.09 0.08 0.07 0.05 0.03 0.02 0.01 0.00 0.01 0.00 0.00 0.00 0.00 0.00 0.00 0.00 0.00 0.02 0.06 0.05 0.02 0.08 0.22 0.51 0.91 1.34 1.28 0.74 0.34 0.15 0.04 0.01 0.00
0.12 0.13 0.16 0.19 0.22 0.20 0.21 0.19 0.14 0.17 0.13 0.13 0.12 0.10 0.07 0.04 0.03 0.02 0.01 0.01 0.00 0.00 0.00 0.00 0.00 0.00 0.00 0.02 0.04 0.03 0.01 0.02 0.08 0.29 0.68 0.91 0.81 0.53 0.30 0.16 0.05 0.02 0.01
0.09 0.09 0.12 0.17 0.18 0.18 0.19 0.17 0.17 0.19 0.17 0.16 0.15 0.11 0.09 0.08 0.05 0.05 0.04 0.03 0.01 0.00 0.00 0.00 0.00 0.00 0.01 0.03 0.05 0.02 0.00 0.01 0.04 0.09 0.22 0.33 0.35 0.28 0.16 0.08 0.03 0.01 0.01
0.09 0.08 0.08 0.10 0.12 0.13 0.16 0.16 0.16 0.19 0.18 0.16 0.14 0.10 0.09 0.07 0.08 0.07 0.06 0.06 0.04 0.00 0.00 0.00 0.00 0.00 0.01 0.03 0.01 0.00 0.01 0.02 0.02 0.03 0.06 0.09 0.08 0.07 0.04 0.01 0.00 0.00 0.00
0.12 0.10 0.08 0.06 0.06 0.06 0.09 0.10 0.10 0.13 0.12 0.12 0.11 0.09 0.06 0.05 0.06 0.06 0.06 0.06 0.06 0.02 0.02 0.00 0.00 0.00 0.00 0.02 0.01 0.01 0.01 0.01 0.01 0.01 0.01 0.02 0.02 0.01 0.00 0.00 0.00 0.00 0.00
0.14 0.11 0.09 0.06 0.04 0.04 0.04 0.04 0.06 0.07 0.06 0.06 0.05 0.06 0.05 0.04 0.05 0.06 0.07 0.10 0.12 0.12 0.11 0.07 0.01 0.00 0.00 0.00 0.01 0.01 0.01 0.01 0.00 0.00 0.00 0.00 0.00 0.00 0.00 0.00 0.00 0.00 0.00
0.09 0.07 0.06 0.05 0.04 0.03 0.03 0.03 0.04 0.04 0.04 0.03 0.04 0.05 0.06 0.07 0.08 0.08 0.10 0.14 0.16 0.18 0.22 0.20 0.07 0.01 0.00 0.00 0.00 0.01 0.00 0.00 0.00 0.00 0.00 0.00 0.00 0.00 0.00 0.00 0.00 0.00 0.00
0.04 0.03 0.04 0.03 0.03 0.02 0.01 0.01 0.01 0.01 0.02 0.04 0.05 0.05 0.07 0.10 0.12 0.15 0.18 0.19 0.18 0.20 0.24 0.23 0.16 0.05 0.01 0.00 0.00 0.00 0.00 0.00 0.00 0.00 0.00 0.00 0.00 0.00 0.00 0.00 0.00 0.00 0.00
0.01 0.01 0.01 0.01 0.01 0.01 0.00 0.00 0.00 0.01 0.02 0.03 0.04 0.04 0.06 0.10 0.15 0.20 0.22 0.22 0.21 0.22 0.26 0.28 0.22 0.13 0.07 0.03 0.01 0.00 0.00 0.00 0.00 0.00 0.00 0.00 0.00 0.00 0.00 0.00 0.00 0.00 0.00
0.00 0.00 0.00 0.00 0.00 0.00 0.00 0.00 0.00 0.01 0.01 0.02 0.02 0.03 0.04 0.08 0.13 0.18 0.20 0.24 0.28 0.29 0.30 0.33 0.31 0.22 0.14 0.06 0.03 0.02 0.00 0.00 0.00 0.00 0.00 0.00 0.00 0.00 0.00 0.00 0.00 0.00 0.00
0.00 0.00 0.00 0.00 0.00 0.00 0.00 0.00 0.00 0.01 0.01 0.01 0.01 0.01 0.03 0.05 0.10 0.16 0.18 0.23 0.27 0.24 0.26 0.28 0.30 0.23 0.18 0.10 0.09 0.06 0.03 0.04 0.01 0.00 0.00 0.00 0.00 0.00 0.00 0.00 0.00 0.00 0.00
0.00 0.00 0.00 0.00 0.00 0.00 0.00 0.01 0.01 0.01 0.01 0.01 0.01 0.01 0.03 0.04 0.08 0.11 0.14 0.16 0.18 0.18 0.16 0.19 0.23 0.21 0.19 0.17 0.17 0.14 0.11 0.10 0.06 0.02 0.02 0.00 0.00 0.00 0.00 0.00 0.00 0.00 0.00
0.00 0.00 0.00 0.00 0.00 0.00 0.00 0.01 0.01 0.01 0.01 0.01 0.01 0.02 0.03 0.04 0.05 0.07 0.10 0.12 0.13 0.15 0.15 0.17 0.19 0.19 0.19 0.19 0.18 0.15 0.14 0.14 0.11 0.07 0.09 0.06 0.05 0.05 0.03 0.01 0.01 0.01 0.01
0.00 0.00 0.00 0.00 0.00 0.00 0.00 0.00 0.00 0.00 0.00 0.01 0.01 0.01 0.01 0.02 0.03 0.05 0.07 0.08 0.09 0.13 0.17 0.20 0.19 0.19 0.18 0.16 0.15 0.13 0.14 0.15 0.15 0.11 0.14 0.14 0.11 0.11 0.08 0.05 0.04 0.02 0.02
0.00 0.00 0.00 0.00 0.00 0.00 0.00 0.00 0.00 0.00 0.00 0.00 0.00 0.00 0.00 0.00 0.01 0.01 0.03 0.03 0.04 0.05 0.07 0.12 0.15 0.13 0.11 0.11 0.12 0.13 0.13 0.14 0.15 0.10 0.13 0.18 0.15 0.12 0.06 0.07 0.06 0.03 0.02
0.00 0.00 0.00 0.00 0.00 0.00 0.00 0.00 0.00 0.00 0.00 0.00 0.00 0.00 0.00 0.00 0.00 0.00 0.00 0.01 0.01 0.01 0.02 0.03 0.05 0.05 0.05 0.07 0.09 0.12 0.12 0.10 0.09 0.07 0.09 0.19 0.16 0.12 0.05 0.04 0.04 0.03 0.02
0.01 0.00 0.00 0.01 0.00 0.00 0.00 0.00 0.00 0.00 0.00 0.00 0.00 0.00 0.00 0.00 0.00 0.00 0.00 0.00 0.00 0.00 0.00 0.00 0.01 0.02 0.03 0.04 0.05 0.08 0.10 0.12 0.15 0.10 0.06 0.12 0.12 0.10 0.07 0.05 0.03 0.02 0.01
0.02 0.01 0.02 0.01 0.01 0.01 0.00 0.00 0.00 0.00 0.00 0.00 0.00 0.00 0.00 0.00 0.00 0.00 0.00 0.00 0.00 0.00 0.00 0.00 0.00 0.00 0.01 0.01 0.02 0.03 0.05 0.08 0.13 0.11 0.05 0.06 0.06 0.07 0.08 0.04 0.01 0.01 0.00

GEFSMA_prec_meanprec_024.txt.gz
QPF
0.03 0.06 0.06 0.06 0.06 0.09 0.14 0.14 0.10 0.10 0.07 0.04 0.02 0.01 0.01 0.01 0.01 0.03 0.08 0.03 0.00 0.00 0.00 0.01 0.01 0.01 0.02 0.04 0.06 0.08 0.09 0.10 0.11 0.09 0.08 0.09 0.10 0.07 0.03 0.00 0.00 0.00 0.00
0.06 0.07 0.08 0.08 0.05 0.07 0.13 0.15 0.11 0.13 0.07 0.04 0.02 0.00 0.00 0.00 0.01 0.01 0.05 0.08 0.04 0.01 0.00 0.00 0.00 0.00 0.01 0.01 0.03 0.05 0.08 0.10 0.12 0.11 0.10 0.12 0.13 0.10 0.04 0.01 0.00 0.00 0.00
0.05 0.05 0.10 0.09 0.08 0.06 0.13 0.11 0.09 0.10 0.07 0.04 0.03 0.00 0.00 0.00 0.00 0.01 0.01 0.05 0.03 0.02 0.01 0.00 0.01 0.00 0.00 0.01 0.02 0.03 0.06 0.10 0.13 0.14 0.13 0.14 0.17 0.16 0.10 0.04 0.01 0.00 0.00
0.04 0.06 0.07 0.09 0.09 0.07 0.12 0.13 0.10 0.12 0.14 0.08 0.05 0.01 0.01 0.01 0.00 0.00 0.01 0.02 0.01 0.02 0.03 0.02 0.01 0.01 0.00 0.00 0.01 0.02 0.05 0.10 0.14 0.16 0.15 0.14 0.18 0.21 0.18 0.11 0.05 0.01 0.00
0.05 0.09 0.08 0.08 0.05 0.10 0.10 0.09 0.13 0.15 0.17 0.13 0.03 0.05 0.01 0.00 0.00 0.00 0.01 0.00 0.00 0.01 0.02 0.02 0.01 0.00 0.00 0.00 0.01 0.01 0.03 0.09 0.12 0.14 0.15 0.14 0.18 0.23 0.24 0.18 0.09 0.03 0.00
0.06 0.09 0.09 0.10 0.08 0.14 0.14 0.12 0.16 0.16 0.15 0.13 0.03 0.04 0.01 0.00 0.00 0.00 0.00 0.00 0.00 0.00 0.00 0.00 0.01 0.01 0.00 0.00 0.00 0.00 0.01 0.06 0.10 0.11 0.13 0.16 0.22 0.29 0.32 0.24 0.13 0.05 0.01
0.07 0.10 0.08 0.13 0.11 0.14 0.16 0.16 0.23 0.22 0.19 0.18 0.13 0.08 0.01 0.00 0.00 0.00 0.00 0.00 0.00 0.00 0.00 0.00 0.01 0.01 0.00 0.01 0.01 0.00 0.01 0.03 0.07 0.09 0.12 0.17 0.27 0.37 0.41 0.34 0.17 0.07 0.02
0.07 0.08 0.11 0.12 0.13 0.16 0.19 0.20 0.22 0.18 0.15 0.19 0.21 0.17 0.10 0.09 0.06 0.00 0.00 0.00 0.00 0.00 0.00 0.00 0.00 0.00 0.00 0.03 0.04 0.00 0.00 0.01 0.05 0.09 0.13 0.19 0.33 0.47 0.47 0.37 0.21 0.11 0.05
0.06 0.08 0.10 0.12 0.14 0.15 0.18 0.21 0.21 0.19 0.17 0.21 0.28 0.23 0.20 0.20 0.10 0.02 0.01 0.00 0.00 0.00 0.00 0.00 0.00 0.00 0.00 0.03 0.07 0.04 0.00 0.00 0.03 0.08 0.15 0.26 0.47 0.55 0.52 0.40 0.27 0.15 0.07
0.05 0.07 0.09 0.12 0.14 0.14 0.16 0.14 0.17 0.22 0.22 0.19 0.25 0.28 0.26 0.22 0.16 0.09 0.04 0.01 0.01 0.00 0.00 0.00 0.00 0.00 0.01 0.02 0.04 0.02 0.00 0.00 0.02 0.07 0.18 0.34 0.50 0.52 0.49 0.40 0.27 0.14 0.07
0.06 0.06 0.07 0.09 0.12 0.13 0.15 0.15 0.20 0.20 0.21 0.19 0.20 0.21 0.25 0.25 0.20 0.14 0.11 0.07 0.04 0.00 0.00 0.00 0.00 0.00 0.00 0.01 0.03 0.01 0.00 0.00 0.01 0.05 0.13 0.25 0.37 0.43 0.42 0.36 0.22 0.12 0.07
0.08 0.07 0.06 0.08 0.12 0.14 0.16 0.17 0.17 0.18 0.20 0.20 0.19 0.21 0.22 0.20 0.21 0.20 0.16 0.14 0.11 0.02 0.00 0.00 0.00 0.00 0.00 0.01 0.00 0.00 0.00 0.00 0.00 0.02 0.06 0.13 0.22 0.28 0.30 0.25 0.16 0.09 0.04
0.16 0.15 0.11 0.13 0.14 0.15 0.18 0.20 0.21 0.22 0.23 0.21 0.19 0.20 0.21 0.18 0.20 0.20 0.16 0.14 0.16 0.08 0.05 0.02 0.01 0.00 0.00 0.01 0.00 0.00 0.00 0.00 0.00 0.01 0.03 0.05 0.09 0.14 0.15 0.11 0.08 0.06 0.03
0.19 0.18 0.15 0.15 0.15 0.16 0.18 0.20 0.22 0.22 0.23 0.21 0.17 0.20 0.15 0.14 0.17 0.17 0.17 0.18 0.17 0.18 0.20 0.12 0.03 0.01 0.00 0.01 0.01 0.00 0.00 0.00 0.00 0.01 0.01 0.02 0.04 0.05 0.05 0.05 0.03 0.02 0.01
0.12 0.11 0.12 0.13 0.14 0.15 0.15 0.16 0.16 0.16 0.17 0.15 0.14 0.15 0.13 0.12 0.15 0.17 0.19 0.21 0.20 0.19 0.25 0.24 0.11 0.04 0.02 0.02 0.02 0.01 0.00 0.00 0.00 0.00 0.00 0.01 0.01 0.01 0.02 0.01 0.00 0.00 0.00
0.05 0.06 0.06 0.07 0.07 0.08 0.08 0.09 0.09 0.10 0.10 0.10 0.09 0.09 0.10 0.10 0.12 0.15 0.18 0.20 0.22 0.22 0.23 0.26 0.18 0.09 0.07 0.04 0.02 0.01 0.01 0.00 0.00 0.00 0.00 0.00 0.00 0.00 0.00 0.00 0.00 0.00 0.00
0.01 0.01 0.02 0.03 0.03 0.03 0.03 0.03 0.03 0.04 0.04 0.04 0.05 0.07 0.09 0.11 0.12 0.13 0.15 0.17 0.20 0.24 0.22 0.30 0.30 0.25 0.19 0.10 0.04 0.04 0.02 0.01 0.00 0.00 0.00 0.00 0.00 0.00 0.00 0.00 0.00 0.00 0.00
0.00 0.01 0.01 0.02 0.02 0.01 0.01 0.01 0.01 0.01 0.01 0.01 0.02 0.04 0.05 0.07 0.11 0.13 0.15 0.17 0.21 0.28 0.27 0.31 0.43 0.39 0.31 0.18 0.12 0.07 0.03 0.01 0.01 0.01 0.00 0.00 0.00 0.00 0.00 0.00 0.00 0.00 0.00
0.00 0.00 0.00 0.00 0.00 0.00 0.00 0.00 0.01 0.01 0.01 0.01 0.02 0.03 0.04 0.05 0.07 0.11 0.14 0.18 0.22 0.33 0.35 0.33 0.39 0.37 0.28 0.19 0.20 0.15 0.08 0.07 0.03 0.04 0.01 0.00 0.00 0.00 0.00 0.00 0.00 0.00 0.00
0.00 0.00 0.00 0.00 0.00 0.00 0.00 0.00 0.01 0.02 0.02 0.03 0.03 0.03 0.02 0.01 0.02 0.05 0.10 0.17 0.21 0.25 0.30 0.32 0.34 0.33 0.30 0.28 0.26 0.22 0.19 0.13 0.10 0.07 0.06 0.02 0.01 0.00 0.00 0.00 0.00 0.00 0.00
0.00 0.00 0.00 0.00 0.00 0.00 0.00 0.00 0.01 0.01 0.02 0.03 0.04 0.04 0.01 0.00 0.00 0.00 0.02 0.08 0.15 0.22 0.27 0.29 0.33 0.36 0.36 0.35 0.31 0.27 0.26 0.23 0.16 0.13 0.16 0.10 0.07 0.05 0.02 0.01 0.00 0.00 0.00
0.00 0.00 0.00 0.00 0.00 0.00 0.00 0.00 0.00 0.01 0.01 0.02 0.03 0.03 0.01 0.01 0.00 0.00 0.00 0.01 0.04 0.09 0.16 0.25 0.31 0.33 0.33 0.35 0.36 0.31 0.27 0.24 0.20 0.16 0.20 0.22 0.21 0.19 0.14 0.08 0.05 0.03 0.02
0.02 0.01 0.01 0.01 0.00 0.00 0.00 0.00 0.00 0.00 0.00 0.00 0.01 0.01 0.01 0.00 0.00 0.01 0.01 0.02 0.02 0.02 0.05 0.17 0.24 0.23 0.21 0.20 0.23 0.25 0.23 0.21 0.21 0.19 0.19 0.23 0.26 0.29 0.21 0.16 0.11 0.06 0.05
0.03 0.03 0.03 0.03 0.02 0.00 0.00 0.00 0.00 0.00 0.00 0.00 0.00 0.00 0.00 0.00 0.00 0.00 0.02 0.05 0.02 0.01 0.02 0.08 0.09 0.08 0.09 0.12 0.14 0.17 0.19 0.19 0.20 0.20 0.22 0.23 0.27 0.33 0.29 0.21 0.13 0.07 0.05
0.03 0.02 0.03 0.05 0.04 0.01 0.00 0.00 0.00 0.00 0.00 0.00 0.00 0.00 0.00 0.00 0.00 0.00 0.03 0.05 0.02 0.01 0.00 0.01 0.01 0.01 0.02 0.03 0.07 0.11 0.15 0.20 0.22 0.19 0.21 0.29 0.34 0.42 0.50 0.38 0.21 0.09 0.04
0.03 0.03 0.03 0.04 0.04 0.02 0.00 0.00 0.00 0.00 0.00 0.00 0.00 0.00 0.00 0.00 0.00 0.00 0.01 0.03 0.03 0.01 0.01 0.00 0.00 0.00 0.00 0.01 0.01 0.03 0.07 0.13 0.21 0.20 0.16 0.20 0.30 0.46 0.57 0.48 0.29 0.15 0.07